#timestamp,LO_Frequency,Hit,StdDev 
1457218815.6,286047009.3,Y
1457218835.4,286047006.3,P
1457218855.3,286047008.9,P
1457218875.1,286047005.0,N
1457218876.0,286047005.0,N
1457218895.8,286047004.8,N
1457218915.7,286047001.9,N
1457218935.5,286047001.5,N
1457218955.3,286047005.7,N
1457218975.2,286047005.9,N
1457218995.9,286047005.2,N
1457219015.7,286047005.4,N
1457219035.6,286047006.5,Y
1457219055.4,286047002.1,P
1457219075.2,286047004.1,N
1457219095.1,286046999.9,N
1457219096.0,286046999.9,N
1457219115.8,286046999.5,N
1457219135.6,286046999.3,N
1457219155.4,286046997.0,N
1457219175.3,286047001.9,N
1457219195.1,286047004.6,N
1457219215.8,286047004.8,N
1457219235.7,286047007.2,N
1457219255.5,286047002.9,N
1457219275.3,286047004.4,N
1457219295.2,286046999.9,N
1457219315.9,286047000.7,N
1457219335.7,286046996.9,N
1457219355.6,286046995.6,N
1457219375.4,286046997.2,N
1457219395.2,286046996.7,N
1457219415.1,286046999.1,N
1457219416.0,286046999.1,N
1457219435.8,286046995.3,N
1457219455.6,286046996.3,N
1457219475.5,286046994.0,N
1457219495.3,286046994.1,N
1457219515.1,286046992.2,N
1457219535.9,286046989.1,N
1457219555.7,286046985.4,Y
1457219575.5,286046986.3,P
1457219595.4,286046986.2,N
1457219615.2,286046983.6,N
1457219635.0,286046985.0,N
1457219635.9,286046985.0,N
1457219655.8,286046986.6,N
1457219675.6,286046983.0,Y
1457219695.4,286046996.3,P
1457219715.3,286046997.1,N
1457219735.1,286046998.4,N
1457219736.0,286046998.4,N
1457219755.8,286046997.7,N
1457219775.7,286046998.2,N
1457219795.5,286046997.8,N
1457219815.3,286046996.7,N
1457219835.2,286046995.0,N
1457219855.9,286046997.9,N
1457219875.7,286046995.0,N
1457219895.5,286046995.1,N
1457219915.4,286046993.7,N
1457219935.2,286046994.6,N
1457219955.0,286046992.6,N
1457219955.9,286046992.6,N
1457219975.8,286046990.4,Y
1457219995.6,286046997.4,P
1457220015.4,286046993.4,P
1457220035.3,286046993.9,P
1457220055.1,286046997.5,N
1457220075.8,286046997.0,N
1457220095.7,286046995.1,N
1457220115.5,286046995.0,Y
1457220135.3,286047003.4,P
1457220155.2,286047001.8,N
1457220175.0,286047002.0,N
1457220175.9,286047002.0,N
1457220195.7,286047003.5,N
1457220215.6,286047001.3,N
1457220235.4,286047002.9,N
1457220255.2,286047003.4,N
1457220275.1,286047001.3,N
1457220276.0,286047001.3,N
1457220295.8,286046999.9,N
1457220315.6,286046999.9,N
1457220335.5,286047003.6,N
1457220355.3,286047003.1,N
1457220375.1,286047002.7,N
1457220395.9,286046999.9,N
1457220415.7,286047001.2,N
1457220435.5,286047000.1,N
1457220455.3,286047002.6,N
1457220475.2,286047000.2,N
1457220495.0,286047002.6,N
1457220495.9,286047002.6,N
1457220515.7,286047003.2,N
1457220535.6,286047000.1,N
1457220555.4,286046999.4,N
1457220575.2,286046999.6,N
1457220595.1,286046998.1,N
1457220596.0,286046998.1,N
1457220615.8,286046998.2,N
1457220635.6,286046993.6,Y
1457220655.5,286046994.9,P
1457220675.3,286046996.4,N
1457220695.1,286046996.3,N
1457220715.9,286046994.9,N
1457220735.7,286046993.4,N
1457220755.5,286046993.3,N
1457220775.4,286046993.7,N
1457220795.2,286046994.1,N
1457220815.0,286046992.6,Y
1457220815.9,286046992.6,P
1457220835.8,286046999.4,N
1457220855.6,286046998.2,N
1457220875.4,286047002.2,N
1457220895.3,286047001.4,N
1457220915.1,286047002.2,N
1457220916.0,286047002.2,N
1457220935.8,286047000.2,N
1457220955.6,286047000.6,N
1457220975.5,286046998.8,N
1457220995.3,286047002.7,N
1457221015.1,286047002.0,N
1457221035.9,286047001.5,N
1457221055.7,286047000.2,N
1457221075.5,286047003.6,N
1457221095.4,286047001.9,N
1457221115.2,286047004.4,N
1457221135.0,286047001.9,N
1457221135.9,286047001.9,N
1457221155.8,286047002.1,N
1457221175.6,286047000.8,N
1457221195.4,286046998.4,N
1457221215.3,286047000.7,N
1457221235.1,286047000.4,N
1457221236.0,286047000.4,N
1457221255.8,286047000.9,N
1457221275.7,286047002.0,N
1457221295.5,286046996.7,N
1457221315.3,286046996.9,N
1457221335.1,286046996.7,N
1457221355.9,286046998.5,N
1457221375.7,286047000.6,N
1457221395.5,286047004.2,N
1457221415.4,286046998.1,N
1457221435.2,286047000.4,N
1457221455.0,286047000.2,N
1457221455.9,286047000.2,N
1457221475.8,286047001.0,N
1457221495.6,286046996.9,N
1457221515.4,286046995.4,N
1457221535.3,286046994.4,N
1457221555.1,286046993.6,N
1457221556.0,286046993.6,N
1457221575.8,286046995.8,N
1457221595.7,286046996.7,N
1457221615.5,286046996.7,N
1457221635.3,286046997.0,N
1457221655.2,286046999.4,N
1457221675.9,286046997.0,N
1457221695.7,286046995.4,N
1457221715.6,286046998.3,N
1457221735.4,286046997.0,N
1457221755.2,286046996.5,N
1457221775.0,286046999.3,N
1457221776.0,286046999.3,N
1457221795.8,286046998.5,N
1457221815.6,286046998.0,N
1457221835.4,286047001.2,N
1457221855.3,286046999.5,N
1457221875.1,286046995.4,N
1457221895.8,286046996.0,N
1457221915.7,286046995.7,N
1457221935.5,286046997.9,N
1457221955.3,286046993.4,Y
1457221975.2,286046997.3,P
1457221995.9,286046998.8,P
1457222015.7,286047000.0,N
1457222035.6,286047001.9,N
1457222055.4,286047004.3,N
1457222075.2,286047003.9,N
1457222095.1,286047006.0,N
1457222096.0,286047006.0,N
1457222115.8,286047007.4,N
1457222135.6,286047006.7,N
1457222155.4,286047007.8,N
1457222175.3,286047011.8,Y
1457222195.1,286047007.0,P
1457222215.9,286047008.5,P
1457222235.7,286047009.4,P
1457222255.5,286047012.3,Y
1457222275.4,286047003.8,P
1457222295.2,286047004.2,N
1457222315.0,286047004.6,P
1457222315.9,286047004.6,Y
1457222335.8,286046999.3,P
1457222355.6,286047001.2,N
1457222375.4,286047000.4,N
1457222395.2,286047004.6,N
